PLT8125 SCEL-SBFZ

Flight info

Callsign PLT8125
Flight time 5h 20m
Altitude 35000
Route GUVOL4A GUVOL UN527 JUA UM529 VAS UM403 FIGOS/N0488F370 UM403 SIREM DCT EPDEP UZ60 DOTKU
Aircraft B77W/H-SDE1E2E3FGHIJ2J3J4J5M1RWXY/LB1D1

Departure

Time 2026-04-30 09:51
Airport Comodoro Arturo Merino Benítez International Airport (SCEL)

Arrival

Time 2026-04-30 15:11
Airport Pinto Martins International Airport (SBFZ)
Time Latitude Longitude Altitude Speed Heading
2026-04-30 09:17 -33.40087 -70.79797 1569 ft 0 kts 357°
2026-04-30 09:33 -33.40089 -70.79797 1569 ft 3 kts 357°
2026-04-30 09:33 -33.40110 -70.79797 1569 ft 3 kts
2026-04-30 09:34 -33.40127 -70.79797 1569 ft 3 kts 324°
2026-04-30 09:34 -33.40140 -70.79784 1569 ft 3 kts 300°
2026-04-30 09:34 -33.40145 -70.79764 1569 ft 3 kts 259°
2026-04-30 09:34 -33.40141 -70.79741 1569 ft 1 kts 267°
2026-04-30 09:35 -33.40141 -70.79735 1569 ft 0 kts 267°
2026-04-30 09:38 -33.40141 -70.79736 1569 ft 0 kts 267°
2026-04-30 09:38 -33.40142 -70.79754 1569 ft 4 kts 265°
2026-04-30 09:39 -33.40149 -70.79796 1569 ft 6 kts 258°
2026-04-30 09:39 -33.40158 -70.79855 1570 ft 8 kts 262°
2026-04-30 09:39 -33.40163 -70.79930 1570 ft 10 kts 271°
2026-04-30 09:39 -33.40138 -70.80002 1571 ft 10 kts 318°
2026-04-30 09:40 -33.40076 -70.80023 1572 ft 10 kts
2026-04-30 09:40 -33.40007 -70.80017 1571 ft 10 kts
2026-04-30 09:40 -33.39938 -70.80018 1571 ft 10 kts 358°
2026-04-30 09:40 -33.39869 -70.80023 1571 ft 10 kts 358°
2026-04-30 09:41 -33.39800 -70.80027 1571 ft 10 kts 357°
2026-04-30 09:41 -33.39732 -70.80032 1571 ft 10 kts 356°
2026-04-30 09:41 -33.39663 -70.80036 1571 ft 10 kts 356°
2026-04-30 09:41 -33.39594 -70.80041 1571 ft 10 kts 356°
2026-04-30 09:42 -33.39525 -70.80046 1571 ft 10 kts 357°
2026-04-30 09:42 -33.39456 -70.80049 1571 ft 10 kts 357°
2026-04-30 09:42 -33.39387 -70.80052 1571 ft 10 kts 358°
2026-04-30 09:42 -33.39318 -70.80055 1571 ft 10 kts 356°
2026-04-30 09:43 -33.39242 -70.80060 1571 ft 11 kts 356°
2026-04-30 09:43 -33.39158 -70.80064 1571 ft 13 kts 358°
2026-04-30 09:43 -33.39069 -70.80069 1571 ft 13 kts 357°
2026-04-30 09:43 -33.38974 -70.80075 1572 ft 14 kts 357°
2026-04-30 09:44 -33.38874 -70.80080 1572 ft 15 kts 357°
2026-04-30 09:44 -33.38767 -70.80086 1572 ft 16 kts 358°
2026-04-30 09:44 -33.38654 -70.80093 1572 ft 17 kts 357°
2026-04-30 09:44 -33.38539 -70.80099 1572 ft 17 kts 357°
2026-04-30 09:45 -33.38424 -70.80105 1571 ft 17 kts 358°
2026-04-30 09:45 -33.38309 -70.80114 1571 ft 17 kts 360°
2026-04-30 09:45 -33.38195 -70.80117 1571 ft 17 kts 358°
2026-04-30 09:45 -33.38080 -70.80123 1571 ft 17 kts 357°
2026-04-30 09:46 -33.37965 -70.80130 1571 ft 17 kts 357°
2026-04-30 09:46 -33.37850 -70.80136 1571 ft 17 kts 357°
2026-04-30 09:46 -33.37735 -70.80142 1571 ft 17 kts 358°
2026-04-30 09:46 -33.37621 -70.80147 1571 ft 17 kts 358°
2026-04-30 09:47 -33.37506 -70.80153 1571 ft 17 kts 357°
2026-04-30 09:47 -33.37391 -70.80160 1572 ft 17 kts 357°
2026-04-30 09:47 -33.37276 -70.80167 1572 ft 17 kts 357°
2026-04-30 09:47 -33.37179 -70.80174 1572 ft 14 kts 348°
2026-04-30 09:48 -33.37115 -70.80229 1573 ft 0 kts 296°
2026-04-30 09:48 -33.37111 -70.80240 1574 ft 3 kts 296°
2026-04-30 09:49 -33.37105 -70.80264 1575 ft 3 kts 279°
2026-04-30 09:49 -33.37106 -70.80290 1576 ft 3 kts 261°
2026-04-30 09:49 -33.37113 -70.80314 1578 ft 3 kts 249°
2026-04-30 09:49 -33.37123 -70.80337 1579 ft 4 kts 237°
2026-04-30 09:50 -33.37158 -70.80369 1578 ft 6 kts 200°
2026-04-30 09:50 -33.37172 -70.80370 1578 ft 0 kts 182°
2026-04-30 09:50 -33.37274 -70.80368 1578 ft 45 kts 177°
2026-04-30 09:50 -33.37834 -70.80339 1577 ft 114 kts 177°
2026-04-30 09:51 -33.38834 -70.80281 1579 ft 171 kts 177°
2026-04-30 09:51 -33.40143 -70.80222 1747 ft 197 kts 177°
2026-04-30 09:51 -33.41522 -70.80144 2305 ft 200 kts 178°
2026-04-30 09:51 -33.42932 -70.80100 2896 ft 204 kts 179°
2026-04-30 09:52 -33.44362 -70.80060 3467 ft 207 kts 178°
2026-04-30 09:52 -33.45810 -70.80014 3998 ft 210 kts 179°
2026-04-30 09:52 -33.47243 -70.80258 4433 ft 213 kts 209°
2026-04-30 09:52 -33.48217 -70.81561 4805 ft 219 kts 251°
2026-04-30 09:53 -33.48356 -70.83437 4971 ft 237 kts 276°
2026-04-30 09:53 -33.48191 -70.85485 5243 ft 255 kts 276°
2026-04-30 09:53 -33.48022 -70.87640 5745 ft 265 kts 276°
2026-04-30 09:53 -33.47857 -70.89882 6316 ft 275 kts 276°
2026-04-30 09:54 -33.47694 -70.92182 6980 ft 279 kts 276°
2026-04-30 09:54 -33.47484 -70.94481 7691 ft 276 kts 285°
2026-04-30 09:54 -33.46614 -70.96510 8268 ft 276 kts 315°
2026-04-30 09:54 -33.45087 -70.97761 9077 ft 264 kts 338°
2026-04-30 09:55 -33.43307 -70.98258 9660 ft 271 kts 358°
2026-04-30 09:55 -33.41406 -70.98149 10176 ft 277 kts
2026-04-30 09:55 -33.39417 -70.97946 10454 ft 299 kts
2026-04-30 09:55 -33.37267 -70.97719 10613 ft 322 kts
2026-04-30 09:56 -33.34956 -70.97479 10787 ft 345 kts
2026-04-30 09:56 -33.32517 -70.97232 11253 ft 357 kts
2026-04-30 09:56 -33.30010 -70.96986 11860 ft 366 kts
2026-04-30 09:56 -33.27460 -70.96744 12703 ft 369 kts
2026-04-30 09:57 -33.24882 -70.96503 13561 ft 374 kts
2026-04-30 09:57 -33.22278 -70.96200 14177 ft 380 kts
2026-04-30 09:57 -33.19761 -70.95073 14748 ft 394 kts 28°
2026-04-30 09:57 -33.17507 -70.93182 15404 ft 400 kts 33°
2026-04-30 09:58 -33.15247 -70.91190 16081 ft 407 kts 33°
2026-04-30 09:58 -33.12948 -70.89175 16792 ft 412 kts 33°
2026-04-30 09:58 -33.10613 -70.87152 17485 ft 419 kts 32°
2026-04-30 09:58 -33.08228 -70.85107 18145 ft 425 kts 32°
2026-04-30 09:59 -33.03394 -70.80972 19402 ft 433 kts 32°
2026-04-30 09:59 -32.98526 -70.76632 20723 ft 440 kts 33°
2026-04-30 10:00 -32.93584 -70.72234 21984 ft 449 kts 32°
2026-04-30 10:00 -32.90927 -70.70302 21947 ft 445 kts 17°
2026-04-30 10:01 -32.85004 -70.69265 23049 ft 435 kts 358°
2026-04-30 10:01 -32.81975 -70.69125 23686 ft 437 kts 358°
2026-04-30 10:01 -32.78933 -70.68966 24241 ft 439 kts 358°
2026-04-30 10:02 -32.72773 -70.68583 25255 ft 447 kts 358°
2026-04-30 10:02 -32.69702 -70.68376 25723 ft 450 kts 358°
2026-04-30 10:02 -32.66567 -70.68163 26214 ft 451 kts 359°
2026-04-30 10:02 -32.63443 -70.67468 26489 ft 467 kts 15°
2026-04-30 10:03 -32.60536 -70.65617 26886 ft 484 kts 32°
2026-04-30 10:03 -32.58083 -70.62825 27380 ft 496 kts 49°
2026-04-30 10:03 -32.56230 -70.59355 27775 ft 502 kts 56°
2026-04-30 10:03 -32.54467 -70.55749 28084 ft 508 kts 56°
2026-04-30 10:04 -32.52687 -70.52116 28520 ft 511 kts 56°
2026-04-30 10:04 -32.50878 -70.48480 28982 ft 513 kts 55°
2026-04-30 10:04 -32.49038 -70.44849 29336 ft 516 kts 54°
2026-04-30 10:04 -32.47166 -70.41202 29741 ft 519 kts 54°
2026-04-30 10:05 -32.45285 -70.37561 30282 ft 517 kts 54°
2026-04-30 10:05 -32.43422 -70.33949 30881 ft 511 kts 53°
2026-04-30 10:05 -32.41571 -70.30370 31444 ft 508 kts 53°
2026-04-30 10:05 -32.39732 -70.26815 31966 ft 506 kts 53°
2026-04-30 10:06 -32.37897 -70.23268 32451 ft 504 kts 53°
2026-04-30 10:06 -32.36134 -70.19695 32939 ft 503 kts 56°
2026-04-30 10:06 -32.34491 -70.16049 33548 ft 499 kts 57°
2026-04-30 10:06 -32.32925 -70.12414 34096 ft 496 kts 57°
2026-04-30 10:07 -32.31373 -70.08771 34374 ft 497 kts 57°
2026-04-30 10:07 -32.28237 -70.01490 34684 ft 502 kts 57°
2026-04-30 10:07 -32.26640 -69.97832 35008 ft 499 kts 57°
2026-04-30 10:08 -32.25041 -69.94194 34995 ft 500 kts 57°
2026-04-30 10:08 -32.21817 -69.86914 34988 ft 499 kts 57°
2026-04-30 10:09 -32.18606 -69.79680 34957 ft 496 kts 57°
2026-04-30 10:09 -32.15413 -69.72493 34946 ft 493 kts 57°
2026-04-30 10:10 -32.12764 -69.66544 34937 ft 492 kts 57°
2026-04-30 10:10 -32.09565 -69.59368 34912 ft 495 kts 57°
2026-04-30 10:11 -32.06355 -69.52177 34909 ft 496 kts 57°
2026-04-30 10:11 -32.03113 -69.44942 34891 ft 500 kts 57°
2026-04-30 10:12 -31.99852 -69.37675 34893 ft 503 kts 58°
2026-04-30 10:12 -31.96568 -69.30364 34884 ft 506 kts 58°
2026-04-30 10:13 -31.93260 -69.23013 34879 ft 508 kts 58°
2026-04-30 10:13 -31.89963 -69.15702 34873 ft 509 kts 58°
2026-04-30 10:14 -31.86640 -69.08349 34860 ft 509 kts 58°
2026-04-30 10:14 -31.81661 -68.97358 34868 ft 507 kts 58°
2026-04-30 10:15 -31.78339 -68.90046 34863 ft 507 kts 58°
2026-04-30 10:15 -31.75012 -68.82739 34870 ft 506 kts 58°
2026-04-30 10:16 -31.71684 -68.75442 34870 ft 507 kts 58°
2026-04-30 10:17 -31.66675 -68.64484 34877 ft 508 kts 58°
2026-04-30 10:17 -31.61661 -68.53548 34888 ft 510 kts 58°
2026-04-30 10:18 -31.58286 -68.46199 34884 ft 511 kts 58°
2026-04-30 10:19 -31.53122 -68.35229 34882 ft 512 kts 57°
2026-04-30 10:19 -31.49571 -68.27986 34885 ft 512 kts 57°
2026-04-30 10:20 -31.46026 -68.20739 34885 ft 513 kts 57°
2026-04-30 10:20 -31.40716 -68.09838 34883 ft 514 kts 57°
2026-04-30 10:21 -31.37169 -68.02570 34888 ft 513 kts 57°
2026-04-30 10:21 -31.33638 -67.95354 34879 ft 514 kts 57°
2026-04-30 10:22 -31.30083 -67.88103 34868 ft 513 kts 57°
2026-04-30 10:22 -31.26528 -67.80863 34876 ft 513 kts 57°
2026-04-30 10:23 -31.22979 -67.73644 34878 ft 513 kts 57°
2026-04-30 10:23 -31.19421 -67.66424 34890 ft 513 kts 57°
2026-04-30 10:24 -31.15851 -67.59190 34891 ft 515 kts 57°
2026-04-30 10:24 -31.12288 -67.51983 34896 ft 516 kts 57°
2026-04-30 10:25 -31.08704 -67.44746 34905 ft 517 kts 57°
2026-04-30 10:25 -31.05096 -67.37475 34902 ft 518 kts 57°
2026-04-30 10:26 -31.01478 -67.30197 34911 ft 518 kts 57°
2026-04-30 10:26 -30.97858 -67.22924 34910 ft 518 kts 57°
2026-04-30 10:27 -30.94258 -67.15718 34925 ft 518 kts 56°
2026-04-30 10:27 -30.90628 -67.08478 34929 ft 518 kts 57°
2026-04-30 10:28 -30.86990 -67.01233 34936 ft 519 kts 57°
2026-04-30 10:28 -30.83337 -66.93968 34942 ft 519 kts 57°
2026-04-30 10:29 -30.79681 -66.86709 34944 ft 521 kts 57°
2026-04-30 10:29 -30.76013 -66.79440 34946 ft 521 kts 57°
2026-04-30 10:30 -30.72334 -66.72163 34947 ft 522 kts 57°
2026-04-30 10:30 -30.68652 -66.64893 34955 ft 522 kts 57°
2026-04-30 10:31 -30.64956 -66.57608 34947 ft 523 kts 57°
2026-04-30 10:31 -30.61259 -66.50336 34955 ft 523 kts 57°
2026-04-30 10:32 -30.57554 -66.43063 34959 ft 524 kts 57°
2026-04-30 10:32 -30.53841 -66.35786 34962 ft 524 kts 57°
2026-04-30 10:33 -30.50124 -66.28513 34961 ft 524 kts 56°
2026-04-30 10:33 -30.46428 -66.21297 34963 ft 524 kts 56°
2026-04-30 10:34 -30.43275 -66.15151 34963 ft 524 kts 56°
2026-04-30 10:34 -30.39543 -66.07889 34963 ft 524 kts 56°
2026-04-30 10:35 -30.35803 -66.00625 34962 ft 525 kts 56°
2026-04-30 10:35 -30.32063 -65.93372 34957 ft 525 kts 56°
2026-04-30 10:36 -30.28307 -65.86104 34973 ft 526 kts 56°
2026-04-30 10:36 -30.24547 -65.78837 34953 ft 526 kts 56°
2026-04-30 10:37 -30.20787 -65.71584 34948 ft 526 kts 56°
2026-04-30 10:37 -30.17014 -65.64329 34966 ft 526 kts 56°
2026-04-30 10:38 -30.13261 -65.57126 34965 ft 527 kts 56°
2026-04-30 10:38 -30.09478 -65.49872 34944 ft 527 kts 56°
2026-04-30 10:39 -30.05689 -65.42620 34957 ft 527 kts 56°
2026-04-30 10:39 -30.01890 -65.35361 34952 ft 528 kts 56°
2026-04-30 10:40 -29.98089 -65.28112 34961 ft 528 kts 56°
2026-04-30 10:40 -29.94280 -65.20862 34959 ft 528 kts 56°
2026-04-30 10:41 -29.90494 -65.13665 34963 ft 529 kts 56°
2026-04-30 10:41 -29.86674 -65.06417 34959 ft 529 kts 56°
2026-04-30 10:42 -29.82852 -64.99172 34967 ft 529 kts 56°
2026-04-30 10:42 -29.79026 -64.91914 34963 ft 530 kts 56°
2026-04-30 10:43 -29.75200 -64.84662 34964 ft 530 kts 56°
2026-04-30 10:43 -29.71366 -64.77411 34964 ft 530 kts 56°
2026-04-30 10:44 -29.67522 -64.70155 34966 ft 531 kts 56°
2026-04-30 10:44 -29.64269 -64.64024 34970 ft 531 kts 56°
2026-04-30 10:45 -29.60420 -64.56779 34974 ft 531 kts 56°
2026-04-30 10:45 -29.56574 -64.49600 34975 ft 531 kts 56°
2026-04-30 10:46 -29.52675 -64.42379 34976 ft 532 kts 56°
2026-04-30 10:46 -29.48778 -64.35161 34979 ft 532 kts 56°
2026-04-30 10:47 -29.44873 -64.27932 34979 ft 533 kts 56°
2026-04-30 10:47 -29.40969 -64.20701 34982 ft 533 kts 56°
2026-04-30 10:48 -29.37068 -64.13457 34984 ft 534 kts 56°
2026-04-30 10:48 -29.33188 -64.06262 34992 ft 534 kts 56°
2026-04-30 10:49 -29.29272 -63.99017 34992 ft 534 kts 56°
2026-04-30 10:49 -29.25613 -63.92260 34989 ft 534 kts 56°
2026-04-30 10:50 -29.21696 -63.85041 34993 ft 534 kts 56°
2026-04-30 10:50 -29.17771 -63.77817 34994 ft 534 kts 57°
2026-04-30 10:51 -29.13849 -63.70610 34996 ft 534 kts 56°
2026-04-30 10:51 -29.09917 -63.63397 35000 ft 534 kts 56°
2026-04-30 10:52 -29.05986 -63.56194 35000 ft 534 kts 57°
2026-04-30 10:52 -29.02067 -63.48989 35003 ft 534 kts 57°
2026-04-30 10:53 -28.98142 -63.41780 35000 ft 534 kts 57°
2026-04-30 10:53 -28.94215 -63.34581 35007 ft 534 kts 57°
2026-04-30 10:54 -28.90276 -63.27377 35004 ft 535 kts 57°
2026-04-30 10:54 -28.86338 -63.20246 35006 ft 535 kts 56°
2026-04-30 10:55 -28.82352 -63.13077 35004 ft 535 kts 56°
2026-04-30 10:55 -28.78367 -63.05912 35007 ft 535 kts 56°
2026-04-30 10:56 -28.74380 -62.98747 35005 ft 535 kts 56°
2026-04-30 10:56 -28.70392 -62.91589 35005 ft 535 kts 56°
2026-04-30 10:57 -28.66398 -62.84434 35008 ft 535 kts 56°
2026-04-30 10:57 -28.62395 -62.77273 35007 ft 536 kts 57°
2026-04-30 10:58 -28.59064 -62.71325 35011 ft 536 kts 57°
2026-04-30 10:58 -28.55062 -62.64177 35017 ft 536 kts 57°
2026-04-30 10:59 -28.51054 -62.57022 35013 ft 536 kts 57°
2026-04-30 10:59 -28.47050 -62.49883 35018 ft 535 kts 57°
2026-04-30 11:00 -28.43064 -62.42792 35015 ft 535 kts 57°
2026-04-30 11:00 -28.39051 -62.35662 35019 ft 535 kts 57°
2026-04-30 11:01 -28.35038 -62.28546 35018 ft 535 kts 57°
2026-04-30 11:01 -28.31015 -62.21422 35020 ft 535 kts 57°
2026-04-30 11:02 -28.26991 -62.14311 35017 ft 535 kts 57°
2026-04-30 11:02 -28.22990 -62.07249 35024 ft 536 kts 57°
2026-04-30 11:03 -28.18931 -62.00097 35022 ft 536 kts 57°
2026-04-30 11:04 -28.12894 -61.89485 35024 ft 536 kts 57°
2026-04-30 11:04 -28.08835 -61.82384 35027 ft 537 kts 57°
2026-04-30 11:05 -28.04776 -61.75289 35025 ft 537 kts 57°
2026-04-30 11:05 -28.00708 -61.68193 35029 ft 537 kts 57°
2026-04-30 11:06 -27.96635 -61.61097 35034 ft 537 kts 57°
2026-04-30 11:06 -27.92565 -61.54015 35029 ft 537 kts 57°
2026-04-30 11:07 -27.88492 -61.46938 35031 ft 536 kts 57°
2026-04-30 11:07 -27.84416 -61.39868 35033 ft 536 kts 57°
2026-04-30 11:08 -27.80345 -61.32802 35033 ft 536 kts 57°
2026-04-30 11:08 -27.76275 -61.25745 35032 ft 536 kts 56°
2026-04-30 11:09 -27.72231 -61.18745 35044 ft 536 kts 56°
2026-04-30 11:09 -27.68155 -61.11702 35043 ft 536 kts 56°
2026-04-30 11:10 -27.64078 -61.04667 35044 ft 536 kts 56°
2026-04-30 11:10 -27.59996 -60.97633 35047 ft 536 kts 56°
2026-04-30 11:11 -27.55909 -60.90611 35048 ft 536 kts 56°
2026-04-30 11:11 -27.51813 -60.83599 35049 ft 535 kts 56°
2026-04-30 11:12 -27.47712 -60.76587 35047 ft 535 kts 56°
2026-04-30 11:12 -27.43618 -60.69594 35051 ft 535 kts 56°
2026-04-30 11:13 -27.39519 -60.62602 35046 ft 534 kts 55°
2026-04-30 11:13 -27.35426 -60.55629 35051 ft 534 kts 55°
2026-04-30 11:14 -27.31352 -60.48702 35047 ft 534 kts 55°
2026-04-30 11:14 -27.27252 -60.41742 35051 ft 533 kts 55°
2026-04-30 11:15 -27.23153 -60.34794 35048 ft 533 kts 54°
2026-04-30 11:15 -27.19056 -60.27861 35048 ft 532 kts 54°
2026-04-30 11:16 -27.14959 -60.20939 35043 ft 531 kts 54°
2026-04-30 11:16 -27.10867 -60.14034 35046 ft 531 kts 54°
2026-04-30 11:17 -27.06774 -60.07139 35042 ft 530 kts 54°
2026-04-30 11:17 -27.02709 -60.00303 35048 ft 530 kts 54°
2026-04-30 11:18 -26.98616 -59.93431 35048 ft 530 kts 53°
2026-04-30 11:18 -26.92681 -59.83482 35042 ft 529 kts 53°
2026-04-30 11:19 -26.88587 -59.76632 35045 ft 528 kts 53°
2026-04-30 11:19 -26.84492 -59.69792 35042 ft 528 kts 53°
2026-04-30 11:20 -26.80406 -59.62975 35044 ft 527 kts 53°
2026-04-30 11:20 -26.76342 -59.56205 35043 ft 527 kts 53°
2026-04-30 11:21 -26.72252 -59.49398 35032 ft 527 kts 53°
2026-04-30 11:21 -26.68164 -59.42594 35029 ft 527 kts 53°
2026-04-30 11:22 -26.64069 -59.35786 35044 ft 527 kts 53°
2026-04-30 11:22 -26.59965 -59.28973 35040 ft 528 kts 53°
2026-04-30 11:23 -26.55853 -59.22170 35047 ft 528 kts 53°
2026-04-30 11:24 -26.49667 -59.11962 35045 ft 530 kts 53°
2026-04-30 11:24 -26.45532 -59.05147 35043 ft 531 kts 54°
2026-04-30 11:25 -26.39359 -58.94973 34987 ft 529 kts 49°
2026-04-30 11:26 -26.31062 -58.81373 35034 ft 532 kts 49°
2026-04-30 11:26 -26.26889 -58.74540 35041 ft 534 kts 49°
2026-04-30 11:27 -26.22705 -58.67698 35039 ft 534 kts 49°
2026-04-30 11:27 -26.18518 -58.60859 35038 ft 534 kts 49°
2026-04-30 11:28 -26.12228 -58.50607 35027 ft 534 kts 49°
2026-04-30 11:29 -26.08038 -58.43790 35022 ft 534 kts 49°
2026-04-30 11:29 -26.01750 -58.33582 35032 ft 533 kts 49°
2026-04-30 11:30 -25.95458 -58.23388 35033 ft 533 kts 49°
2026-04-30 11:31 -25.91289 -58.16647 35029 ft 532 kts 49°
2026-04-30 11:31 -25.87088 -58.09861 35037 ft 532 kts 49°
2026-04-30 11:32 -25.82891 -58.03093 35038 ft 532 kts 49°
2026-04-30 11:32 -25.78689 -57.96325 35041 ft 532 kts 49°
2026-04-30 11:33 -25.71705 -57.86953 35040 ft 517 kts 34°
2026-04-30 11:33 -25.66060 -57.82169 35042 ft 506 kts 25°
2026-04-30 11:34 -25.60166 -57.77984 35039 ft 507 kts 25°
2026-04-30 11:34 -25.56188 -57.75154 35036 ft 508 kts 25°
2026-04-30 11:35 -25.50889 -57.71339 35034 ft 508 kts 25°
2026-04-30 11:35 -25.44963 -57.67047 35030 ft 509 kts 25°
2026-04-30 11:36 -25.39025 -57.62750 35022 ft 509 kts 25°
2026-04-30 11:36 -25.33131 -57.58494 35022 ft 509 kts 25°
2026-04-30 11:37 -25.27192 -57.54209 35018 ft 509 kts 26°
2026-04-30 11:37 -25.21606 -57.49272 35018 ft 522 kts 38°
2026-04-30 11:38 -25.16519 -57.43534 35021 ft 523 kts 39°
2026-04-30 11:38 -25.11458 -57.37780 35040 ft 522 kts 38°
2026-04-30 11:39 -25.06364 -57.32068 35025 ft 522 kts 38°
2026-04-30 11:39 -25.01256 -57.26387 35036 ft 521 kts 38°
2026-04-30 11:40 -24.96152 -57.20721 35034 ft 521 kts 38°
2026-04-30 11:40 -24.91046 -57.15054 35030 ft 521 kts 38°
2026-04-30 11:41 -24.85974 -57.09429 35033 ft 521 kts 38°
2026-04-30 11:41 -24.80874 -57.03780 35033 ft 520 kts 38°
2026-04-30 11:42 -24.75761 -56.98124 35033 ft 520 kts 38°
2026-04-30 11:42 -24.70653 -56.92480 35031 ft 520 kts 38°
2026-04-30 11:43 -24.65542 -56.86838 35030 ft 520 kts 38°
2026-04-30 11:43 -24.60419 -56.81209 35032 ft 520 kts 38°
2026-04-30 11:44 -24.55295 -56.75593 35029 ft 520 kts 38°
2026-04-30 11:44 -24.50164 -56.69973 35033 ft 521 kts 38°
2026-04-30 11:45 -24.45033 -56.64358 35038 ft 521 kts 38°
2026-04-30 11:45 -24.39898 -56.58743 35028 ft 521 kts 38°
2026-04-30 11:46 -24.34791 -56.53166 35037 ft 521 kts 38°
2026-04-30 11:46 -24.29646 -56.47555 35034 ft 521 kts 38°
2026-04-30 11:47 -24.24506 -56.41955 35030 ft 521 kts 38°
2026-04-30 11:47 -24.19362 -56.36359 35039 ft 521 kts 38°
2026-04-30 11:48 -24.15092 -56.31718 35033 ft 521 kts 38°
2026-04-30 11:48 -24.09944 -56.26129 35035 ft 521 kts 38°
2026-04-30 11:49 -24.04796 -56.20547 35031 ft 521 kts 39°
2026-04-30 11:49 -23.99649 -56.14973 35039 ft 521 kts 38°
2026-04-30 11:50 -23.94500 -56.09403 35033 ft 521 kts 39°
2026-04-30 11:50 -23.89349 -56.03837 35039 ft 521 kts 39°
2026-04-30 11:51 -23.84192 -55.98271 35038 ft 521 kts 39°
2026-04-30 11:51 -23.79040 -55.92718 35039 ft 521 kts 39°
2026-04-30 11:52 -23.73917 -55.87202 35040 ft 521 kts 39°
2026-04-30 11:52 -23.68758 -55.81651 35036 ft 521 kts 39°
2026-04-30 11:53 -23.63596 -55.76105 35044 ft 521 kts 39°
2026-04-30 11:53 -23.58433 -55.70571 35045 ft 520 kts 39°
2026-04-30 11:54 -23.53272 -55.65048 35041 ft 521 kts 39°
2026-04-30 11:54 -23.48108 -55.59524 35047 ft 520 kts 39°
2026-04-30 11:55 -23.42935 -55.53994 35053 ft 521 kts 39°
2026-04-30 11:55 -23.37763 -55.48472 35052 ft 521 kts 39°
2026-04-30 11:56 -23.32597 -55.42950 35058 ft 520 kts 39°
2026-04-30 11:56 -23.27434 -55.37432 35062 ft 520 kts 39°
2026-04-30 11:57 -23.22302 -55.31954 35059 ft 520 kts 39°
2026-04-30 11:57 -23.17100 -55.26410 35057 ft 520 kts 39°
2026-04-30 11:58 -23.11959 -55.20936 35062 ft 520 kts 39°
2026-04-30 11:58 -23.06784 -55.15434 35070 ft 520 kts 39°
2026-04-30 11:59 -23.01607 -55.09934 35066 ft 520 kts 39°
2026-04-30 11:59 -22.96429 -55.04440 35065 ft 520 kts 39°
2026-04-30 12:00 -22.91251 -54.98952 35058 ft 521 kts 39°
2026-04-30 12:00 -22.86065 -54.93461 35078 ft 520 kts 39°
2026-04-30 12:01 -22.80885 -54.87983 35076 ft 520 kts 39°
2026-04-30 12:01 -22.75740 -54.82548 35067 ft 520 kts 39°
2026-04-30 12:02 -22.70560 -54.77083 35064 ft 520 kts 39°
2026-04-30 12:02 -22.65379 -54.71621 35069 ft 519 kts 39°
2026-04-30 12:03 -22.57613 -54.63444 35069 ft 519 kts 39°
2026-04-30 12:04 -22.52429 -54.58004 35067 ft 518 kts 39°
2026-04-30 12:04 -22.47239 -54.52599 35067 ft 518 kts 39°
2026-04-30 12:05 -22.42042 -54.47195 35060 ft 518 kts 39°
2026-04-30 12:05 -22.36849 -54.41794 35059 ft 518 kts 39°
2026-04-30 12:06 -22.31660 -54.36401 35069 ft 517 kts 39°
2026-04-30 12:06 -22.26507 -54.31050 35060 ft 517 kts 39°
2026-04-30 12:07 -22.21318 -54.25668 35060 ft 517 kts 39°
2026-04-30 12:07 -22.16135 -54.20297 35064 ft 517 kts 39°
2026-04-30 12:08 -22.10946 -54.14928 35062 ft 516 kts 39°
2026-04-30 12:08 -22.05764 -54.09571 35063 ft 516 kts 39°
2026-04-30 12:09 -22.00580 -54.04217 35063 ft 516 kts 39°
2026-04-30 12:09 -21.95398 -53.98871 35057 ft 515 kts 39°
2026-04-30 12:10 -21.90221 -53.93537 35059 ft 514 kts 39°
2026-04-30 12:10 -21.85049 -53.88212 35059 ft 514 kts 39°
2026-04-30 12:11 -21.79880 -53.82896 35060 ft 514 kts 39°
2026-04-30 12:11 -21.74747 -53.77622 35064 ft 513 kts 39°
2026-04-30 12:12 -21.69580 -53.72318 35066 ft 513 kts 39°
2026-04-30 12:12 -21.64416 -53.67023 35065 ft 513 kts 39°
2026-04-30 12:13 -21.59245 -53.61735 35058 ft 513 kts 39°
2026-04-30 12:13 -21.54074 -53.56455 35064 ft 513 kts 39°
2026-04-30 12:14 -21.48898 -53.51170 35064 ft 513 kts 39°
2026-04-30 12:14 -21.43727 -53.45876 35066 ft 514 kts 39°
2026-04-30 12:15 -21.38638 -53.40490 35056 ft 514 kts 40°
2026-04-30 12:15 -21.33597 -53.35108 35072 ft 514 kts 40°
2026-04-30 12:16 -21.28513 -53.29714 35071 ft 514 kts 40°
2026-04-30 12:16 -21.23419 -53.24331 35072 ft 513 kts 40°
2026-04-30 12:17 -21.15786 -53.16274 35053 ft 513 kts 40°
2026-04-30 12:17 -21.10703 -53.10912 35073 ft 513 kts 40°
2026-04-30 12:18 -21.05579 -53.05593 35061 ft 512 kts 39°
2026-04-30 12:18 -21.00377 -53.00401 35061 ft 511 kts 39°
2026-04-30 12:19 -20.95174 -52.95211 35062 ft 511 kts 39°
2026-04-30 12:19 -20.90026 -52.90044 35061 ft 511 kts 39°
2026-04-30 12:20 -20.84844 -52.84846 35057 ft 511 kts 39°
2026-04-30 12:20 -20.79691 -52.79613 35066 ft 511 kts 40°
2026-04-30 12:21 -20.74560 -52.74360 35061 ft 511 kts 40°
2026-04-30 12:21 -20.69426 -52.69123 35056 ft 511 kts 40°
2026-04-30 12:22 -20.64278 -52.63883 35061 ft 510 kts 40°
2026-04-30 12:22 -20.59132 -52.58661 35057 ft 510 kts 40°
2026-04-30 12:23 -20.54015 -52.53478 35057 ft 510 kts 40°
2026-04-30 12:23 -20.51434 -52.50866 35198 ft 512 kts 40°
2026-04-30 12:23 -20.48855 -52.48254 35525 ft 510 kts 40°
2026-04-30 12:24 -20.46285 -52.45653 35899 ft 508 kts 40°
2026-04-30 12:24 -20.44635 -52.43983 36133 ft 507 kts 40°
2026-04-30 12:24 -20.42080 -52.41398 36472 ft 505 kts 40°
2026-04-30 12:24 -20.39534 -52.38825 36763 ft 504 kts 40°
2026-04-30 12:25 -20.36984 -52.36249 36989 ft 505 kts 40°
2026-04-30 12:25 -20.34429 -52.33669 37022 ft 507 kts 40°
2026-04-30 12:25 -20.29309 -52.28501 37038 ft 505 kts 40°
2026-04-30 12:26 -20.24234 -52.23365 37060 ft 501 kts 40°
2026-04-30 12:26 -20.19193 -52.18263 37053 ft 499 kts 40°
2026-04-30 12:27 -20.14163 -52.13178 37057 ft 498 kts 40°
2026-04-30 12:27 -20.09139 -52.08105 37062 ft 498 kts 40°
2026-04-30 12:28 -20.04100 -52.03022 37062 ft 499 kts 40°
2026-04-30 12:28 -19.99488 -51.98372 37055 ft 500 kts 40°
2026-04-30 12:29 -19.94436 -51.93282 37057 ft 500 kts 40°
2026-04-30 12:29 -19.89376 -51.88190 37055 ft 501 kts 40°
2026-04-30 12:30 -19.84316 -51.83095 37056 ft 501 kts 40°
2026-04-30 12:30 -19.79272 -51.77996 37054 ft 500 kts 41°
2026-04-30 12:31 -19.74230 -51.72900 37054 ft 500 kts 41°
2026-04-30 12:31 -19.69227 -51.67852 37062 ft 499 kts 41°
2026-04-30 12:32 -19.64192 -51.62787 37059 ft 498 kts 40°
2026-04-30 12:32 -19.59141 -51.57758 37059 ft 498 kts 40°
2026-04-30 12:33 -19.54085 -51.52734 37053 ft 497 kts 40°
2026-04-30 12:33 -19.49041 -51.47718 37053 ft 497 kts 40°
2026-04-30 12:34 -19.44002 -51.42709 37053 ft 497 kts 40°
2026-04-30 12:34 -19.38963 -51.37703 37049 ft 496 kts 40°
2026-04-30 12:35 -19.33925 -51.32704 37053 ft 496 kts 40°
2026-04-30 12:35 -19.28887 -51.27709 37047 ft 496 kts 41°
2026-04-30 12:36 -19.23854 -51.22723 37049 ft 496 kts 41°
2026-04-30 12:36 -19.19672 -51.18583 37049 ft 495 kts 41°
2026-04-30 12:37 -19.13821 -51.12795 37051 ft 495 kts 41°
2026-04-30 12:37 -19.08789 -51.07820 37046 ft 495 kts 41°
2026-04-30 12:38 -19.04612 -51.03679 37053 ft 495 kts 41°
2026-04-30 12:38 -18.99591 -50.98709 37049 ft 495 kts 41°
2026-04-30 12:39 -18.94559 -50.93737 37056 ft 494 kts 41°
2026-04-30 12:39 -18.89537 -50.88776 37052 ft 495 kts 41°
2026-04-30 12:40 -18.84506 -50.83810 37053 ft 494 kts 41°
2026-04-30 12:40 -18.79362 -50.79002 37049 ft 493 kts 39°
2026-04-30 12:41 -18.74279 -50.74187 37057 ft 494 kts 40°
2026-04-30 12:41 -18.69221 -50.69291 37057 ft 494 kts 40°
2026-04-30 12:42 -18.64145 -50.64398 37054 ft 494 kts 40°
2026-04-30 12:42 -18.59063 -50.59525 37065 ft 493 kts 40°
2026-04-30 12:43 -18.53985 -50.54661 37051 ft 493 kts 40°
2026-04-30 12:43 -18.48908 -50.49802 37062 ft 493 kts 40°
2026-04-30 12:44 -18.43841 -50.44938 37066 ft 493 kts 40°
2026-04-30 12:44 -18.38781 -50.40070 37063 ft 493 kts 40°
2026-04-30 12:45 -18.33720 -50.35204 37070 ft 492 kts 40°
2026-04-30 12:45 -18.28695 -50.30381 37060 ft 492 kts 40°
2026-04-30 12:46 -18.23640 -50.25532 37062 ft 491 kts 41°
2026-04-30 12:46 -18.18589 -50.20691 37064 ft 491 kts 41°
2026-04-30 12:47 -18.13541 -50.15856 37066 ft 491 kts 41°
2026-04-30 12:47 -18.08487 -50.11021 37062 ft 491 kts 41°
2026-04-30 12:48 -18.03438 -50.06191 37063 ft 491 kts 41°
2026-04-30 12:48 -17.98392 -50.01361 37071 ft 490 kts 41°
2026-04-30 12:49 -17.93385 -49.96494 37068 ft 490 kts 41°
2026-04-30 12:49 -17.88378 -49.91624 37065 ft 491 kts 41°
2026-04-30 12:50 -17.83356 -49.86764 37064 ft 491 kts 41°
2026-04-30 12:50 -17.78361 -49.81950 37072 ft 491 kts 41°
2026-04-30 12:51 -17.73325 -49.77096 37067 ft 492 kts 41°
2026-04-30 12:51 -17.68281 -49.72236 37068 ft 492 kts 41°
2026-04-30 12:52 -17.63238 -49.67379 37071 ft 492 kts 41°
2026-04-30 12:52 -17.58194 -49.62526 37070 ft 492 kts 41°
2026-04-30 12:53 -17.53149 -49.57675 37073 ft 492 kts 41°
2026-04-30 12:53 -17.48101 -49.52826 37070 ft 492 kts 41°
2026-04-30 12:54 -17.43125 -49.48048 37080 ft 492 kts 41°
2026-04-30 12:54 -17.38079 -49.43208 37078 ft 492 kts 41°
2026-04-30 12:55 -17.33032 -49.38368 37074 ft 492 kts 41°
2026-04-30 12:55 -17.27984 -49.33533 37083 ft 491 kts 41°
2026-04-30 12:56 -17.22946 -49.28697 37080 ft 491 kts 41°
2026-04-30 12:56 -17.17906 -49.23854 37084 ft 491 kts 41°
2026-04-30 12:57 -17.12865 -49.19017 37087 ft 491 kts 41°
2026-04-30 12:57 -17.07830 -49.14189 37082 ft 491 kts 41°
2026-04-30 12:58 -17.02756 -49.09405 37088 ft 491 kts 40°
2026-04-30 12:58 -16.97677 -49.04710 37089 ft 490 kts 40°
2026-04-30 12:59 -16.92576 -48.99976 37084 ft 490 kts 40°
2026-04-30 12:59 -16.87495 -48.95224 37088 ft 490 kts 41°
2026-04-30 13:00 -16.82437 -48.90443 37091 ft 490 kts 41°
2026-04-30 13:00 -16.77381 -48.85667 37089 ft 490 kts 41°
2026-04-30 13:01 -16.72323 -48.80898 37097 ft 490 kts 41°
2026-04-30 13:01 -16.67260 -48.76131 37091 ft 490 kts 41°
2026-04-30 13:02 -16.62200 -48.71371 37103 ft 490 kts 41°
2026-04-30 13:02 -16.57136 -48.66609 37099 ft 490 kts 41°
2026-04-30 13:03 -16.52103 -48.61884 37103 ft 490 kts 41°
2026-04-30 13:03 -16.47033 -48.57137 37106 ft 490 kts 41°
2026-04-30 13:04 -16.41964 -48.52391 37104 ft 490 kts 41°
2026-04-30 13:04 -16.36856 -48.47611 37095 ft 490 kts 41°
2026-04-30 13:05 -16.31814 -48.42896 37102 ft 490 kts 41°
2026-04-30 13:06 -16.24200 -48.35780 37111 ft 491 kts 42°
2026-04-30 13:06 -16.19117 -48.31035 37105 ft 491 kts 42°
2026-04-30 13:07 -16.14029 -48.26289 37101 ft 491 kts 42°
2026-04-30 13:07 -16.09179 -48.21767 37100 ft 491 kts 42°
2026-04-30 13:08 -16.04095 -48.17031 37127 ft 490 kts 42°
2026-04-30 13:08 -15.99017 -48.12304 37158 ft 490 kts 42°
2026-04-30 13:09 -15.93933 -48.07575 37185 ft 490 kts 42°
2026-04-30 13:09 -15.88854 -48.02853 37206 ft 490 kts 42°
2026-04-30 13:10 -15.83773 -47.98133 37209 ft 490 kts 42°
2026-04-30 13:10 -15.78695 -47.93419 37214 ft 490 kts 42°
2026-04-30 13:11 -15.73619 -47.88710 37191 ft 490 kts 42°
2026-04-30 13:11 -15.68537 -47.83999 37164 ft 489 kts 42°
2026-04-30 13:12 -15.63492 -47.79325 37141 ft 489 kts 42°
2026-04-30 13:12 -15.58408 -47.74620 37108 ft 489 kts 42°
2026-04-30 13:13 -15.50789 -47.67572 37100 ft 489 kts 42°
2026-04-30 13:14 -15.43166 -47.60529 37097 ft 489 kts 42°
2026-04-30 13:14 -15.35544 -47.53494 37083 ft 489 kts 43°
2026-04-30 13:15 -15.27950 -47.46493 37089 ft 489 kts 43°
2026-04-30 13:16 -15.22872 -47.41813 37090 ft 489 kts 43°
2026-04-30 13:16 -15.17792 -47.37133 37088 ft 489 kts 43°
2026-04-30 13:17 -15.10168 -47.30121 37081 ft 489 kts 43°
2026-04-30 13:18 -15.02544 -47.23115 37072 ft 488 kts 43°
2026-04-30 13:18 -14.94931 -47.16125 37071 ft 487 kts 43°
2026-04-30 13:19 -14.89853 -47.11466 37072 ft 487 kts 43°
2026-04-30 13:19 -14.84789 -47.06822 37068 ft 487 kts 43°
2026-04-30 13:20 -14.79722 -47.02180 37063 ft 486 kts 43°
2026-04-30 13:20 -14.74548 -46.97747 37063 ft 486 kts 39°
2026-04-30 13:21 -14.69185 -46.93495 37064 ft 486 kts 38°
2026-04-30 13:22 -14.61145 -46.87091 37063 ft 486 kts 39°
2026-04-30 13:22 -14.53131 -46.80667 37064 ft 486 kts 39°
2026-04-30 13:23 -14.45144 -46.74268 37056 ft 486 kts 39°
2026-04-30 13:24 -14.34451 -46.65703 37057 ft 486 kts 39°
2026-04-30 13:25 -14.23760 -46.57148 37059 ft 486 kts 39°
2026-04-30 13:26 -14.11301 -46.47220 37055 ft 485 kts 39°
2026-04-30 13:28 -13.97957 -46.36611 37056 ft 484 kts 39°
2026-04-30 13:28 -13.89996 -46.30286 37063 ft 483 kts 39°
2026-04-30 13:29 -13.79357 -46.21844 37061 ft 482 kts 39°
2026-04-30 13:31 -13.66085 -46.11321 37064 ft 481 kts 39°
2026-04-30 13:32 -13.52863 -46.00857 37071 ft 481 kts 39°
2026-04-30 13:33 -13.42269 -45.92485 37064 ft 480 kts 39°
2026-04-30 13:34 -13.34329 -45.86214 37068 ft 480 kts 39°
2026-04-30 13:35 -13.23747 -45.77865 37063 ft 480 kts 39°
2026-04-30 13:36 -13.13157 -45.69519 37059 ft 480 kts 39°
2026-04-30 13:36 -13.05213 -45.63262 37057 ft 480 kts 39°
2026-04-30 13:37 -12.97267 -45.57005 37053 ft 480 kts 39°
2026-04-30 13:38 -12.89319 -45.50749 37054 ft 481 kts 39°
2026-04-30 13:39 -12.78697 -45.42395 37048 ft 481 kts 39°
2026-04-30 13:40 -12.70766 -45.36164 37049 ft 481 kts 39°
2026-04-30 13:40 -12.65451 -45.31991 37043 ft 481 kts 39°
2026-04-30 13:41 -12.60145 -45.27826 37044 ft 481 kts 39°
2026-04-30 13:41 -12.54834 -45.23662 37041 ft 480 kts 39°
2026-04-30 13:42 -12.49518 -45.19500 37046 ft 480 kts 39°
2026-04-30 13:42 -12.41554 -45.13269 37038 ft 480 kts 39°
2026-04-30 13:43 -12.36277 -45.09140 37038 ft 481 kts 39°
2026-04-30 13:43 -12.30965 -45.04988 37036 ft 481 kts 39°
2026-04-30 13:44 -12.25648 -45.00832 37032 ft 481 kts 39°
2026-04-30 13:44 -12.20334 -44.96682 37033 ft 481 kts 39°
2026-04-30 13:45 -12.12366 -44.90463 37034 ft 480 kts 39°
2026-04-30 13:46 -12.07052 -44.86317 37030 ft 480 kts 39°
2026-04-30 13:46 -12.01742 -44.82177 37034 ft 480 kts 39°
2026-04-30 13:47 -11.96437 -44.78043 37031 ft 480 kts 39°
2026-04-30 13:47 -11.91126 -44.73906 37035 ft 480 kts 39°
2026-04-30 13:48 -11.85815 -44.69773 37032 ft 480 kts 39°
2026-04-30 13:48 -11.80496 -44.65633 37023 ft 480 kts 39°
2026-04-30 13:49 -11.75182 -44.61500 37025 ft 480 kts 39°
2026-04-30 13:49 -11.69897 -44.57392 37024 ft 480 kts 39°
2026-04-30 13:50 -11.64576 -44.53259 37024 ft 480 kts 39°
2026-04-30 13:50 -11.56602 -44.47067 37025 ft 480 kts 39°
2026-04-30 13:51 -11.51288 -44.42943 37023 ft 480 kts 39°
2026-04-30 13:51 -11.45976 -44.38823 37023 ft 480 kts 39°
2026-04-30 13:52 -11.40659 -44.34701 37027 ft 480 kts 39°
2026-04-30 13:52 -11.35348 -44.30585 37025 ft 480 kts 39°
2026-04-30 13:53 -11.30066 -44.26494 37023 ft 480 kts 39°
2026-04-30 13:53 -11.24749 -44.22378 37025 ft 480 kts 39°
2026-04-30 13:54 -11.19431 -44.18261 37023 ft 480 kts 39°
2026-04-30 13:54 -11.14109 -44.14146 37025 ft 480 kts 39°
2026-04-30 13:55 -11.08777 -44.10039 37022 ft 481 kts 39°
2026-04-30 13:55 -11.03435 -44.05932 37030 ft 481 kts 39°
2026-04-30 13:56 -10.98096 -44.01826 37028 ft 481 kts 39°
2026-04-30 13:56 -10.92752 -43.97717 37031 ft 481 kts 39°
2026-04-30 13:57 -10.87436 -43.93630 37031 ft 481 kts 39°
2026-04-30 13:57 -10.82091 -43.89522 37029 ft 481 kts 39°
2026-04-30 13:58 -10.74064 -43.83358 37028 ft 482 kts 39°
2026-04-30 13:59 -10.68713 -43.79244 37027 ft 482 kts 39°
2026-04-30 13:59 -10.63371 -43.75129 37026 ft 481 kts 39°
2026-04-30 14:00 -10.58063 -43.71041 37025 ft 481 kts 39°
2026-04-30 14:00 -10.50050 -43.64876 37027 ft 481 kts 39°
2026-04-30 14:01 -10.44708 -43.60768 37025 ft 482 kts 39°
2026-04-30 14:01 -10.39365 -43.56662 37023 ft 481 kts 39°
2026-04-30 14:02 -10.34021 -43.52556 37028 ft 481 kts 39°
2026-04-30 14:02 -10.28681 -43.48455 37029 ft 481 kts 39°
2026-04-30 14:03 -10.23345 -43.44357 37023 ft 481 kts 39°
2026-04-30 14:03 -10.18008 -43.40261 37023 ft 481 kts 39°
2026-04-30 14:04 -10.12668 -43.36170 37028 ft 481 kts 39°
2026-04-30 14:04 -10.07354 -43.32103 37019 ft 481 kts 39°
2026-04-30 14:05 -10.02006 -43.28008 37028 ft 482 kts 39°
2026-04-30 14:05 -9.96649 -43.23908 37024 ft 483 kts 39°
2026-04-30 14:06 -9.88601 -43.17753 37018 ft 483 kts 39°
2026-04-30 14:07 -9.80539 -43.11590 37019 ft 484 kts 39°
2026-04-30 14:08 -9.72462 -43.05419 37019 ft 485 kts 38°
2026-04-30 14:08 -9.64376 -42.99245 37021 ft 485 kts 38°
2026-04-30 14:09 -9.58983 -42.95130 37019 ft 486 kts 38°
2026-04-30 14:10 -9.50886 -42.88954 37016 ft 486 kts 38°
2026-04-30 14:10 -9.45472 -42.84841 37013 ft 486 kts 38°
2026-04-30 14:11 -9.40072 -42.80726 37015 ft 486 kts 38°
2026-04-30 14:11 -9.34672 -42.76607 37011 ft 486 kts 38°
2026-04-30 14:12 -9.29305 -42.72517 37013 ft 486 kts 38°
2026-04-30 14:12 -9.23902 -42.68405 37011 ft 485 kts 38°
2026-04-30 14:13 -9.18502 -42.64297 37008 ft 485 kts 38°
2026-04-30 14:13 -9.13103 -42.60191 37008 ft 485 kts 38°
2026-04-30 14:14 -9.07708 -42.56087 37009 ft 485 kts 38°
2026-04-30 14:14 -9.02308 -42.51982 37007 ft 485 kts 38°
2026-04-30 14:15 -8.97824 -42.48572 37004 ft 485 kts 38°
2026-04-30 14:15 -8.92433 -42.44478 37001 ft 484 kts 38°
2026-04-30 14:16 -8.87042 -42.40390 37001 ft 484 kts 38°
2026-04-30 14:16 -8.81650 -42.36302 37002 ft 485 kts 38°
2026-04-30 14:17 -8.76250 -42.32207 37000 ft 485 kts 38°
2026-04-30 14:17 -8.70846 -42.28108 36997 ft 485 kts 38°
2026-04-30 14:18 -8.65436 -42.24007 37001 ft 486 kts 37°
2026-04-30 14:18 -8.57356 -42.17884 37000 ft 486 kts 37°
2026-04-30 14:19 -8.49224 -42.11726 36992 ft 487 kts 37°
2026-04-30 14:20 -8.43803 -42.07622 36992 ft 487 kts 37°
2026-04-30 14:20 -8.35662 -42.01463 36992 ft 488 kts 37°
2026-04-30 14:21 -8.30226 -41.97352 36991 ft 488 kts 37°
2026-04-30 14:22 -8.22100 -41.91209 36993 ft 489 kts 37°
2026-04-30 14:22 -8.13919 -41.85029 36992 ft 490 kts 36°
2026-04-30 14:23 -8.02971 -41.76762 36991 ft 492 kts 36°
2026-04-30 14:24 -7.94733 -41.70545 36992 ft 494 kts 36°
2026-04-30 14:25 -7.83692 -41.62219 36991 ft 497 kts 35°
2026-04-30 14:26 -7.75388 -41.55959 36990 ft 499 kts 35°
2026-04-30 14:27 -7.67027 -41.49651 36983 ft 500 kts 36°
2026-04-30 14:27 -7.61442 -41.45447 36985 ft 501 kts 35°
2026-04-30 14:28 -7.53099 -41.39169 36986 ft 501 kts 35°
2026-04-30 14:28 -7.47506 -41.34961 36981 ft 502 kts 35°
2026-04-30 14:29 -7.36317 -41.26546 36981 ft 501 kts 35°
2026-04-30 14:31 -7.22351 -41.16050 36976 ft 501 kts 35°
2026-04-30 14:31 -7.13979 -41.09762 36980 ft 501 kts 35°
2026-04-30 14:32 -7.05634 -41.03498 36980 ft 501 kts 35°
2026-04-30 14:33 -7.00050 -40.99307 36979 ft 500 kts 35°
2026-04-30 14:33 -6.91693 -40.93038 36981 ft 499 kts 35°
2026-04-30 14:34 -6.86114 -40.88855 36980 ft 499 kts 35°
2026-04-30 14:34 -6.80547 -40.84681 36984 ft 499 kts 35°
2026-04-30 14:35 -6.72724 -40.78817 36984 ft 500 kts 35°
2026-04-30 14:36 -6.67146 -40.74639 36985 ft 500 kts 36°
2026-04-30 14:36 -6.61557 -40.70455 36983 ft 500 kts 36°
2026-04-30 14:37 -6.55976 -40.66276 36983 ft 500 kts 36°
2026-04-30 14:37 -6.50437 -40.62130 36982 ft 500 kts 36°
2026-04-30 14:38 -6.44861 -40.57956 36983 ft 500 kts 36°
2026-04-30 14:38 -6.39277 -40.53779 36981 ft 500 kts 36°
2026-04-30 14:39 -6.33697 -40.49604 36976 ft 500 kts 36°
2026-04-30 14:39 -6.28122 -40.45434 36974 ft 499 kts 36°
2026-04-30 14:40 -6.19765 -40.39186 36974 ft 499 kts 36°
2026-04-30 14:40 -6.14190 -40.35019 36969 ft 499 kts 36°
2026-04-30 14:41 -6.08617 -40.30855 36973 ft 499 kts 36°
2026-04-30 14:41 -6.03038 -40.26686 36971 ft 499 kts 36°
2026-04-30 14:42 -5.97459 -40.22519 36968 ft 500 kts 36°
2026-04-30 14:42 -5.91883 -40.18358 36970 ft 500 kts 36°
2026-04-30 14:43 -5.86333 -40.14218 36970 ft 499 kts 36°
2026-04-30 14:43 -5.80749 -40.10051 36974 ft 499 kts 36°
2026-04-30 14:44 -5.75176 -40.05892 36970 ft 499 kts 36°
2026-04-30 14:44 -5.69601 -40.01734 36975 ft 499 kts 36°
2026-04-30 14:45 -5.64021 -39.97573 36970 ft 499 kts 35°
2026-04-30 14:45 -5.58438 -39.93411 36969 ft 499 kts 35°
2026-04-30 14:46 -5.52859 -39.89253 36970 ft 500 kts 35°
2026-04-30 14:46 -5.47274 -39.85090 36970 ft 500 kts 35°
2026-04-30 14:47 -5.41685 -39.80925 36967 ft 500 kts 36°
2026-04-30 14:47 -5.36101 -39.76766 36969 ft 499 kts 36°
2026-04-30 14:48 -5.30518 -39.72608 36960 ft 499 kts 36°
2026-04-30 14:48 -5.24948 -39.68461 36178 ft 509 kts 36°
2026-04-30 14:49 -5.22102 -39.66345 35488 ft 508 kts 36°
2026-04-30 14:49 -5.19257 -39.64228 34624 ft 509 kts 37°
2026-04-30 14:49 -5.16408 -39.62108 33690 ft 511 kts 37°
2026-04-30 14:49 -5.13551 -39.59982 32672 ft 513 kts 37°
2026-04-30 14:50 -5.08110 -39.55932 30697 ft 515 kts 38°
2026-04-30 14:50 -5.05264 -39.53815 29955 ft 500 kts 38°
2026-04-30 14:51 -4.99800 -39.49754 28486 ft 482 kts 38°
2026-04-30 14:51 -4.97118 -39.47759 27823 ft 478 kts 38°
2026-04-30 14:51 -4.91831 -39.43827 26537 ft 468 kts 38°
2026-04-30 14:52 -4.89224 -39.41889 25903 ft 464 kts 38°
2026-04-30 14:52 -4.84104 -39.38082 24626 ft 457 kts 38°
2026-04-30 14:52 -4.81557 -39.36189 23980 ft 454 kts 39°
2026-04-30 14:53 -4.76548 -39.32468 22606 ft 436 kts 39°
2026-04-30 14:53 -4.74126 -39.30669 21997 ft 432 kts 39°
2026-04-30 14:54 -4.69331 -39.27105 20787 ft 425 kts 39°
2026-04-30 14:54 -4.64640 -39.23618 19586 ft 420 kts 39°
2026-04-30 14:55 -4.59963 -39.20142 18370 ft 417 kts 39°
2026-04-30 14:55 -4.57637 -39.18415 17716 ft 415 kts 39°
2026-04-30 14:55 -4.53030 -39.15000 16499 ft 409 kts 39°
2026-04-30 14:56 -4.48492 -39.11651 15302 ft 396 kts 39°
2026-04-30 14:56 -4.44146 -39.08441 14198 ft 386 kts 39°
2026-04-30 14:57 -4.41983 -39.06841 13609 ft 386 kts 38°
2026-04-30 14:57 -4.37543 -39.03813 12432 ft 386 kts 32°
2026-04-30 14:58 -4.32874 -39.01317 11346 ft 367 kts 31°
2026-04-30 14:58 -4.30682 -39.00123 10999 ft 346 kts 32°
2026-04-30 14:58 -4.26757 -38.97932 10704 ft 302 kts 32°
2026-04-30 14:59 -4.23304 -38.96019 10439 ft 268 kts 32°
2026-04-30 15:00 -4.18558 -38.93386 10218 ft 276 kts 32°
2026-04-30 15:00 -4.15203 -38.91527 9882 ft 274 kts 32°
2026-04-30 15:01 -4.11831 -38.89654 9206 ft 287 kts 32°
2026-04-30 15:01 -4.10626 -38.89002 9070 ft 293 kts 27°
2026-04-30 15:01 -4.06191 -38.87474 8290 ft 283 kts 20°
2026-04-30 15:02 -4.04303 -38.86868 8054 ft 286 kts 21°
2026-04-30 15:02 -4.02419 -38.86241 7859 ft 285 kts 21°
2026-04-30 15:03 -3.97869 -38.84223 7456 ft 260 kts 39°
2026-04-30 15:03 -3.94582 -38.81794 7044 ft 249 kts 39°
2026-04-30 15:04 -3.92292 -38.80121 6791 ft 237 kts 40°
2026-04-30 15:04 -3.88306 -38.77258 5654 ft 229 kts 39°
2026-04-30 15:05 -3.84531 -38.74574 4830 ft 218 kts 39°
2026-04-30 15:06 -3.82050 -38.72900 4291 ft 214 kts 24°
2026-04-30 15:06 -3.79096 -38.72134 3855 ft 226 kts 18°
2026-04-30 15:07 -3.76017 -38.71295 3329 ft 231 kts 18°
2026-04-30 15:07 -3.73771 -38.69523 2938 ft 198 kts 80°
2026-04-30 15:08 -3.74018 -38.66900 2501 ft 194 kts 105°
2026-04-30 15:08 -3.75040 -38.62971 1774 ft 185 kts 107°
2026-04-30 15:09 -3.75659 -38.60643 1300 ft 154 kts 107°
2026-04-30 15:09 -3.76166 -38.58744 946 ft 138 kts 106°
2026-04-30 15:10 -3.76670 -38.56856 618 ft 140 kts 108°
2026-04-30 15:11 -3.77619 -38.53310 97 ft 91 kts 104°
2026-04-30 15:11 -3.77783 -38.52695 98 ft 14 kts 104°
2026-04-30 15:12 -3.77873 -38.52664 98 ft 6 kts 240°
2026-04-30 15:13 -3.77911 -38.52755 98 ft 8 kts 262°
2026-04-30 15:14 -3.77861 -38.52977 96 ft 8 kts 285°
2026-04-30 15:14 -3.77813 -38.53152 98 ft 10 kts 285°
2026-04-30 15:16 -3.77700 -38.53581 98 ft 15 kts 284°
2026-04-30 15:17 -3.77711 -38.53969 96 ft 14 kts 283°
2026-04-30 15:18 -3.77753 -38.54111 96 ft 2 kts 191°
2026-04-30 15:19 -3.77765 -38.54114 96 ft 0 kts 192°